Location: Burtsch�tz
(51.0528°N, 12.1764°E)
Time: 01:48:29
(UTC+00:00)

Lacrosse 5 - Pass Details

Date: 29 October 2020
Orbit: 716 x 723 km, 57.0° (Epoch: 06 November)

Event Time Altitude Azimuth Distance (km) Brightness Sun altitude
Rises 16:28:52 0° 276° (W) 3,121 6.8 -6.6°
Reaches altitude 10° 16:31:21 10° 283° (WNW) 2,201 5.6 -7.0°
Maximum altitude 16:36:11 43° 355° (N) 1,008 2.6 -7.8°
Enters shadow 16:41:00 10° 67° (ENE) 2,197 3.7 -8.5°
